Home > Weather > Frankfort > Past weeks

Flag for U.S.A. Weather for the Past 2 Weeks in Frankfort, Kentucky, U.S.A.

Now
33 °F

Sunny.


Feels Like: 29 °F
Forecast: 27 / 53 °F
Wind: 5 mph from South

Location: Capital City Airport

Current Time: Feb 7, 2016 at 9:14:11 AM

Latest Report: Feb 7, 2016 at 8:53 AM


Visibility: 10 mi

Pressure: 30.16 "Hg

Humidity: 72%

Dew point: 25 °F

Location of FrankfortLocation

Historic Weather in Frankfort — Graph

°F

Frankfort Temperature Yesterday

Maximum temperature yesterday: 50 °F (at 2:53 PM)
Minimum temperature yesterday: 22 °F (at 7:53 AM)
Average temperature yesterday: 35 °F

High & Low Weather Summary for the Past Weeks

 TemperatureHumidityPressure
High70 °F (Feb 2, 2:53 PM)93% (Feb 3, 1:56 AM)30.47 "Hg (Feb 3, 1:56 AM)
Low4 °F (Jan 24, 6:53 AM)31% (Feb 5, 3:53 PM)29.61 "Hg (Feb 2, 11:53 PM)
Average39 °F65%30.05 "Hg
* Reported Jan 23 7:53 AM — Feb 7 7:53 AM, Frankfort, Weather by CustomWeather, © 2016

Note: Actual official high and low records may vary slightly from our data, if they occured in-between our weather recording intervals... More about our weather records

Advertising

Frankfort Weather History for the Previous 24 Hours

 ConditionsComfort  
Time TempWeatherWind HumidityBarometerVisibility
7:53 AM
Sun, Feb 7
25 °FSunny.3 mph81%30.17 "Hg10 mi
6:53 AM24 °FClear.No wind81%30.16 "Hg10 mi
5:53 AM24 °FClear.3 mph81%30.15 "Hg10 mi
4:53 AM25 °FClear.No wind81%30.17 "Hg10 mi
3:53 AM26 °FClear.No wind77%30.19 "Hg10 mi
2:53 AM27 °FClear.No wind75%30.20 "Hg10 mi
1:53 AM26 °FClear.No wind81%30.22 "Hg10 mi
12:53 AM27 °FClear.No wind78%30.23 "Hg10 mi
11:53 PM
Sat, Feb 6
27 °FClear.No wind78%30.24 "Hg10 mi
10:53 PM28 °FClear.No wind78%30.26 "Hg10 mi
9:53 PM31 °FClear.No wind73%30.26 "Hg10 mi
8:53 PM32 °FClear.No wind69%30.27 "Hg10 mi
7:53 PM36 °FClear.No wind59%30.28 "Hg10 mi
6:53 PM37 °FClear.No wind57%30.28 "Hg10 mi
5:53 PM47 °FSunny.3 mph37%30.27 "Hg10 mi
4:53 PM49 °FSunny.7 mph35%30.26 "Hg10 mi
3:53 PM49 °FSunny.7 mph35%30.26 "Hg10 mi
2:53 PM50 °FOvercast.8 mph35%30.26 "Hg10 mi
1:53 PM47 °FSunny.8 mph37%30.29 "Hg10 mi
12:53 PM46 °FSunny.3 mph40%30.32 "Hg10 mi
11:53 AM45 °FSunny.8 mph40%30.34 "Hg10 mi
10:53 AM39 °FSunny.6 mph48%30.37 "Hg10 mi
9:53 AM35 °FSunny.6 mph52%30.37 "Hg10 mi
Weather by CustomWeather, © 2016

See weather overviewHow to use our weather pages